Aérodrome :
LOGIN :

S'inscrire | Disclaimer

   EN    FR    IT 

 










Légende :    VFR   VFR Marginal   IFR   IFR Intensif   IFR Très Intensif
Visi : 
Plafond : 
>= 8 km
>= 3000ft
5 à 8 km
1000 à 3000 ft
1500m à 5 km
500 à 1000 ft
800 à 1500m
200 à 500 ft
< 800m
< 200 ft
Symboles :   Orages  Brouillard  Fortes neiges  Fortes précipitations  Vent > 20 kt
SIGMETs :   Divers  Orages  Givrage  Turbulence  Onde Orograph.  Cendres Volcan.







- Altitude de l'aérodrome : 55 ft
- Code IATA : DSA
- Voir les cartes d'approche


EGCN - Robin Hood Doncaster Sheffield

DERNIER METAR :
  • 180250Z VRB03KT CAVOK M01/M03 Q1018

METARs EXPIRÉS :
  • 180220Z 15003KT CAVOK M01/M03 Q1018
  • 180150Z VRB01KT CAVOK M01/M03 Q1018
  • 180120Z 24003KT CAVOK M00/M03 Q1019
  • 180050Z VRB03KT CAVOK M00/M03 Q1019
  • 180020Z VRB02KT CAVOK 00/M03 Q1019

TAF TAF EGCN
Valide du 18 à 00h jusqu'au 19 à 00h UTC


172301Z 1800/1824 VRB03KT CAVOK
PROB30 1804/1811 7000
BECMG 1809/1812 15010KT
BECMG 1814/1817 SCT006 BKN010
TEMPO 1816/1824 6000 -RASN BKN006
PROB30
TEMPO 1818/1824 3000 -SN RASN BKN004
Pas de NOTAMs connus pour ce terrain.



MET'MAP, la Météo Aéronautique d'un coup d'oeil ! - Copyright ORBIFLY Décembre 2007 - Disclaimer

ORBIFLY MET'MAP TEAM :

Programmation & Développement : Alexandra Zaïnal
Conception & Développement : Baudouin d'Aumeries
Co-Programmation & Développement : Marc-Olivier Méhu
Soutien technique & logistique : Manuel Goepfert

Contact : metmap@orbifly.com




SOURCES & CREDITS :

   NOAA